Back to catalog

CZ-12 R/B

AliveLEO
NORAD 62187·ROCKET BODY·🇨🇳 China

Launched Nov 30, 2024 from Wenchang Space Launch Site

Loading…

Next Passes (next 24 hours)

TLE

FreshSource: Space-Track

Epoch: Sep 14, 2026, 12:53 UTC

1 62187U 24226C   26257.53733681 -.00000137  00000-0  37688-5 0  9997
2 62187  50.0004 228.7173 0061034  39.9603 320.5758 13.73634371 89756

Track CZ-12 R/B in real time with AllMySat

Download on the App Store